sat.trackr.live / text

‹ back to catalog

MERAH PUTIH 2

NORAD 58995 · 2024-035A

PAYLOAD ACTIVE UNKNOWN

§ Identity

Operator
Country
INDO
Launch date
2024-02-20
Launch site
AFETR
Launch vehicle
Mass (kg)
RCS (m²)

Purposes: comms

External: N2YO · Heavens-Above · Gunter

§ Orbital elements

Epoch: 2026-09-19T20:55:43.550112Z

Period
1,436.08 min
Inclination
0.0169°
Eccentricity
0.0001151
Mean motion
1.00273026 rev/d
Perigee alt
35,781.4 km
Apogee alt
35,791.1 km
Semi-major
42,164.4 km
B*
0.0000e+0
RAAN
153.9717°
Arg perigee
17.7819°
Mean anomaly
253.9251°
Rev number
953

§ Raw data

MERAH PUTIH 21 58995U 24035A   26262.87203183 -.00000362  00000+0  00000+0 0  99902 58995   0.0169 153.9717 0001151  17.7819 253.9251  1.00273026  9533

JSON: /api/v1/satellites/58995 · /tle

For live sub-satellite position, see the globe view (requires WebGL).

§ Visibility from observer

Set your observer location to see the next 7 days of passes ≥ 10°. The values pass through the URL so the page stays shareable.

No JS? Fill the form by hand. The geolocation button needs JavaScript.